Meramec River (Missouri), Eureka (07019000)

StateMissouriLatestUnknown (4630 cfs)
RiverMeramec RiverRatingObservedEstimated
Updated2021-03-03 14:00 (37 minutes ago)Flood - The river is flooding. Obstacles can be treacherous or deadly. The river should be avoided at this stage for casual trips and definitely for the inexperienced. Trips should be attempted only with protective gear and equipment.Flood(none)(none)
Discharge4630 cfs (median: 2440 cfs)High - The river is high and potentially dangerous, especially for the young and / or inexperienced. Normal stream obstacles are sometimes difficult to navigate. Extended distances can be attempted, but canoe travel may not be advisable.High(none)(none)
Height6.08 feetGood - Conditions are ideal for a canoe or kayak. Boats typically will drag on fewer than one-quarter of riffles, if at all, and portages are unnecessary or rare. Normal float lengths can be attempted without a problem.Good(none)(none)
TrendRising (falling over 24 hours)Low - River is low but can still be floated. Some riffles are okay but most come with significant dragging and might need a portage. Float lengths should be reduced to accommodate low flow, dragging, and portages.Low(none)(none)
USGSExternal icon USGS Site (External icon Google Maps)Poor - River is too low to float comfortably. Most or all riffles will drag or must be portaged and some obstacles (such as slick shelf rock) cause undue problems. Avoid the river at this stage for casual paddling trips.Poor(none)(none)

Trending Data

Plot Image

Trips for Meramec River (Missouri), Eureka (07019000)

DateStartEndDistanceConditionDischargeHeightFishingDetails

A total of 0 rows are displayed.

Condition Descriptions

Fishing Conditions

Fish Species

Notes

Classic Trip List

The classic River Trips application is still available for use. It is updated with the new system using a data retrofit. It is no longer maintained. The original River Trips application is no longer updated (as of 1 Dec 2016) but can be checked for errors or for the condition of the data before it was converted to the new system.

Gauge Data Table

ObservationHeightDischargeMaximum
Discharge
Minimum
Discharge
Mean
Discharge
P05P10P20P25P50
(Median)
P75P80P90P95
2021-03-03 14:00 6.08 4630 20300 (1945) 542 (1954) 3510 725 968 1440 1510 2440 4570 5490 7360 8930
2021-03-03 13:30 6.07 4610 20300 (1945) 542 (1954) 3510 725 968 1440 1510 2440 4570 5490 7360 8930
2021-03-03 13:00 6.10 4660 20300 (1945) 542 (1954) 3510 725 968 1440 1510 2440 4570 5490 7360 8930
2021-03-03 12:30 6.09 4640 20300 (1945) 542 (1954) 3510 725 968 1440 1510 2440 4570 5490 7360 8930
2021-03-03 12:00 6.11 4670 20300 (1945) 542 (1954) 3510 725 968 1440 1510 2440 4570 5490 7360 8930
2021-03-03 11:30 6.12 4690 20300 (1945) 542 (1954) 3510 725 968 1440 1510 2440 4570 5490 7360 8930
2021-03-03 11:00 6.12 4690 20300 (1945) 542 (1954) 3510 725 968 1440 1510 2440 4570 5490 7360 8930
2021-03-03 10:30 6.13 4710 20300 (1945) 542 (1954) 3510 725 968 1440 1510 2440 4570 5490 7360 8930
2021-03-03 10:00 6.12 4690 20300 (1945) 542 (1954) 3510 725 968 1440 1510 2440 4570 5490 7360 8930
2021-03-03 09:30 6.14 4720 20300 (1945) 542 (1954) 3510 725 968 1440 1510 2440 4570 5490 7360 8930
2021-03-03 09:00 6.17 4770 20300 (1945) 542 (1954) 3510 725 968 1440 1510 2440 4570 5490 7360 8930
2021-03-03 08:30 6.18 4790 20300 (1945) 542 (1954) 3510 725 968 1440 1510 2440 4570 5490 7360 8930
2021-03-03 08:00 6.18 4790 20300 (1945) 542 (1954) 3510 725 968 1440 1510 2440 4570 5490 7360 8930
2021-03-03 07:30 6.19 4810 20300 (1945) 542 (1954) 3510 725 968 1440 1510 2440 4570 5490 7360 8930
2021-03-03 07:00 6.21 4840 20300 (1945) 542 (1954) 3510 725 968 1440 1510 2440 4570 5490 7360 8930
2021-03-03 06:30 6.21 4840 20300 (1945) 542 (1954) 3510 725 968 1440 1510 2440 4570 5490 7360 8930
2021-03-03 06:00 6.21 4840 20300 (1945) 542 (1954) 3510 725 968 1440 1510 2440 4570 5490 7360 8930
2021-03-03 05:30 6.22 4860 20300 (1945) 542 (1954) 3510 725 968 1440 1510 2440 4570 5490 7360 8930
2021-03-03 05:00 6.24 4890 20300 (1945) 542 (1954) 3510 725 968 1440 1510 2440 4570 5490 7360 8930
2021-03-03 04:30 6.27 4940 20300 (1945) 542 (1954) 3510 725 968 1440 1510 2440 4570 5490 7360 8930
2021-03-03 04:00 6.25 4910 20300 (1945) 542 (1954) 3510 725 968 1440 1510 2440 4570 5490 7360 8930
2021-03-03 03:30 6.27 4940 20300 (1945) 542 (1954) 3510 725 968 1440 1510 2440 4570 5490 7360 8930
2021-03-03 03:00 6.28 4960 20300 (1945) 542 (1954) 3510 725 968 1440 1510 2440 4570 5490 7360 8930
2021-03-03 02:30 6.29 4970 20300 (1945) 542 (1954) 3510 725 968 1440 1510 2440 4570 5490 7360 8930
2021-03-03 02:00 6.31 5010 20300 (1945) 542 (1954) 3510 725 968 1440 1510 2440 4570 5490 7360 8930
2021-03-03 01:30 6.31 5010 20300 (1945) 542 (1954) 3510 725 968 1440 1510 2440 4570 5490 7360 8930
2021-03-03 01:00 6.33 5040 20300 (1945) 542 (1954) 3510 725 968 1440 1510 2440 4570 5490 7360 8930
2021-03-03 00:30 6.34 5060 20300 (1945) 542 (1954) 3510 725 968 1440 1510 2440 4570 5490 7360 8930
2021-03-03 00:00 6.35 5070 20300 (1945) 542 (1954) 3510 725 968 1440 1510 2440 4570 5490 7360 8930
2021-03-02 23:30 6.36 5090 32200 (1997) 517 (1954) 3870 751 968 1270 1500 2370 4560 5590 8410 11400
2021-03-02 23:00 6.37 5110 32200 (1997) 517 (1954) 3870 751 968 1270 1500 2370 4560 5590 8410 11400
2021-03-02 22:30 6.36 5090 32200 (1997) 517 (1954) 3870 751 968 1270 1500 2370 4560 5590 8410 11400
2021-03-02 22:00 6.38 5120 32200 (1997) 517 (1954) 3870 751 968 1270 1500 2370 4560 5590 8410 11400
2021-03-02 21:30 6.39 5140 32200 (1997) 517 (1954) 3870 751 968 1270 1500 2370 4560 5590 8410 11400
2021-03-02 21:00 6.39 5140 32200 (1997) 517 (1954) 3870 751 968 1270 1500 2370 4560 5590 8410 11400
2021-03-02 20:30 6.43 5210 32200 (1997) 517 (1954) 3870 751 968 1270 1500 2370 4560 5590 8410 11400
2021-03-02 20:00 6.44 5220 32200 (1997) 517 (1954) 3870 751 968 1270 1500 2370 4560 5590 8410 11400
2021-03-02 19:30 6.45 5240 32200 (1997) 517 (1954) 3870 751 968 1270 1500 2370 4560 5590 8410 11400
2021-03-02 19:00 6.47 5280 32200 (1997) 517 (1954) 3870 751 968 1270 1500 2370 4560 5590 8410 11400
2021-03-02 18:30 6.47 5280 32200 (1997) 517 (1954) 3870 751 968 1270 1500 2370 4560 5590 8410 11400
2021-03-02 18:00 6.48 5290 32200 (1997) 517 (1954) 3870 751 968 1270 1500 2370 4560 5590 8410 11400
2021-03-02 17:30 6.48 5290 32200 (1997) 517 (1954) 3870 751 968 1270 1500 2370 4560 5590 8410 11400
2021-03-02 17:00 6.51 5340 32200 (1997) 517 (1954) 3870 751 968 1270 1500 2370 4560 5590 8410 11400
2021-03-02 16:30 6.52 5360 32200 (1997) 517 (1954) 3870 751 968 1270 1500 2370 4560 5590 8410 11400
2021-03-02 16:00 6.51 5340 32200 (1997) 517 (1954) 3870 751 968 1270 1500 2370 4560 5590 8410 11400
2021-03-02 15:30 6.54 5390 32200 (1997) 517 (1954) 3870 751 968 1270 1500 2370 4560 5590 8410 11400
2021-03-02 15:00 6.53 5380 32200 (1997) 517 (1954) 3870 751 968 1270 1500 2370 4560 5590 8410 11400
2021-03-02 14:30 6.56 5430 32200 (1997) 517 (1954) 3870 751 968 1270 1500 2370 4560 5590 8410 11400
2021-03-02 14:00 6.56 5430 32200 (1997) 517 (1954) 3870 751 968 1270 1500 2370 4560 5590 8410 11400
2021-03-02 13:30 6.56 5430 32200 (1997) 517 (1954) 3870 751 968 1270 1500 2370 4560 5590 8410 11400
2021-03-02 13:00 6.59 5480 32200 (1997) 517 (1954) 3870 751 968 1270 1500 2370 4560 5590 8410 11400
2021-03-02 12:30 6.59 5480 32200 (1997) 517 (1954) 3870 751 968 1270 1500 2370 4560 5590 8410 11400
2021-03-02 12:00 6.59 5480 32200 (1997) 517 (1954) 3870 751 968 1270 1500 2370 4560 5590 8410 11400
2021-03-02 11:00 6.61 5510 32200 (1997) 517 (1954) 3870 751 968 1270 1500 2370 4560 5590 8410 11400
2021-03-02 10:30 6.62 5530 32200 (1997) 517 (1954) 3870 751 968 1270 1500 2370 4560 5590 8410 11400
2021-03-02 10:00 6.64 5570 32200 (1997) 517 (1954) 3870 751 968 1270 1500 2370 4560 5590 8410 11400
2021-03-02 09:30 6.62 5530 32200 (1997) 517 (1954) 3870 751 968 1270 1500 2370 4560 5590 8410 11400
2021-03-02 09:00 6.64 5570 32200 (1997) 517 (1954) 3870 751 968 1270 1500 2370 4560 5590 8410 11400
2021-03-02 08:30 6.64 5570 32200 (1997) 517 (1954) 3870 751 968 1270 1500 2370 4560 5590 8410 11400
2021-03-02 08:00 6.64 5570 32200 (1997) 517 (1954) 3870 751 968 1270 1500 2370 4560 5590 8410 11400
2021-03-02 07:30 6.65 5580 32200 (1997) 517 (1954) 3870 751 968 1270 1500 2370 4560 5590 8410 11400
2021-03-02 07:00 6.65 5580 32200 (1997) 517 (1954) 3870 751 968 1270 1500 2370 4560 5590 8410 11400
2021-03-02 06:30 6.64 5570 32200 (1997) 517 (1954) 3870 751 968 1270 1500 2370 4560 5590 8410 11400
2021-03-02 06:00 6.66 5600 32200 (1997) 517 (1954) 3870 751 968 1270 1500 2370 4560 5590 8410 11400
2021-03-02 05:30 6.65 5580 32200 (1997) 517 (1954) 3870 751 968 1270 1500 2370 4560 5590 8410 11400
2021-03-02 05:00 6.66 5600 32200 (1997) 517 (1954) 3870 751 968 1270 1500 2370 4560 5590 8410 11400
2021-03-02 04:30 6.67 5620 32200 (1997) 517 (1954) 3870 751 968 1270 1500 2370 4560 5590 8410 11400
2021-03-02 04:00 6.65 5580 32200 (1997) 517 (1954) 3870 751 968 1270 1500 2370 4560 5590 8410 11400
2021-03-02 03:30 6.67 5620 32200 (1997) 517 (1954) 3870 751 968 1270 1500 2370 4560 5590 8410 11400
2021-03-02 03:00 6.67 5620 32200 (1997) 517 (1954) 3870 751 968 1270 1500 2370 4560 5590 8410 11400
2021-03-02 02:30 6.67 5620 32200 (1997) 517 (1954) 3870 751 968 1270 1500 2370 4560 5590 8410 11400
2021-03-02 02:00 6.65 5580 32200 (1997) 517 (1954) 3870 751 968 1270 1500 2370 4560 5590 8410 11400
2021-03-02 01:30 6.67 5620 32200 (1997) 517 (1954) 3870 751 968 1270 1500 2370 4560 5590 8410 11400
2021-03-02 01:00 6.65 5580 32200 (1997) 517 (1954) 3870 751 968 1270 1500 2370 4560 5590 8410 11400
2021-03-02 00:30 6.65 5580 32200 (1997) 517 (1954) 3870 751 968 1270 1500 2370 4560 5590 8410 11400
2021-03-02 00:00 6.65 5580 32200 (1997) 517 (1954) 3870 751 968 1270 1500 2370 4560 5590 8410 11400

A total of 76 rows are displayed for years 1904 through 2020.